Regional Weather Roundup
Issued by NWS

Home | Current Version | Previous Version | Text Only | Print | Product List | Glossary On
Versions: 1 2 3 4 5 6 7 8 9 10 11 12 13 14 15 16 17 18 19 20 21 22 23 24 25 26 27 28 29 30 31 32 33 34 35 36 37 38 39 40 41 42 43 44 45 46 47 48 49 50
000
ASUS43 KTOP 100708
RWRKS

WEATHER ROUNDUP FOR KANSAS
NATIONAL WEATHER SERVICE GOODLAND KS
100 AM CST SAT DEC 10 2016

NOTE:  "FAIR" INDICATES FEW OR NO CLOUDS BELOW 12,000 FEET WITH NO
SIGNIFICANT WEATHER AND/OR OBSTRUCTIONS TO VISIBILITY.

KSZ001>006-013>018-027>032-041>047-100800-
NORTHWEST KANSAS

CITY           SKY/WX    TMP DP  RH WIND       PRES   REMARKS
GOODLAND       CLOUDY    23  19  85 S7        30.17F
HAYS           CLOUDY    15  11  83 SE5       30.35F
HILL CITY      CLOUDY    20  13  74 SE5       30.33F
RUSSELL        CLOUDY    19  12  74 S13       30.35F WCI   6
$$

KSZ061>065-074>080-084>089-100800-
SOUTHWEST KANSAS

CITY           SKY/WX    TMP DP  RH WIND       PRES   REMARKS
DODGE CITY     CLOUDY    20  14  77 S14       30.28F WCI   7
ELKHART          N/A     22  13  69 SE15        N/A  WCI   9
GARDEN CITY    CLOUDY    19  13  77 SE10      30.23F WCI   7
GREAT BEND     CLOUDY    16  12  84 SE8       30.37F
LIBERAL        CLOUDY    25  14  63 E9        30.23F
PRATT          CLOUDY    19  10  68 S12       30.37F WCI   7
$$

KSZ066>073-081>083-090>101-100800-
SOUTHEAST KANSAS

CITY           SKY/WX    TMP DP  RH WIND       PRES   REMARKS
CHANUTE        CLOUDY    29  16  58 SE3       30.47F
COFFEYVILLE    CLOUDY    31  20  63 CALM      30.48F
HUTCHINSON     CLOUDY    24  13  62 SE5       30.43S
MEDICINE LODGE   N/A     20  13  74 SE3       30.40F
NEWTON         CLOUDY    20  14  77 SE8       30.43F
PARSONS        CLOUDY    31  17  56 CALM      30.48F
WICHITA INTL   CLOUDY    21  13  71 SE5       30.44S
WICHITA JABRA  CLOUDY    21  14  74 SE5       30.44S
WICHITA MCCONL CLOUDY    23  13  67 SE3       30.44S
WINFIELD       CLOUDY    23  14  68 CALM      30.46S
$$

KSZ007>012-019>026-033>040-048>060-102>105-100800-
NORTHEAST KANSAS

CITY           SKY/WX    TMP DP  RH WIND       PRES   REMARKS
CONCORDIA      CLEAR     18  13  80 S5        30.42F
EMPORIA        CLOUDY    23  17  78 SE3       30.46F
LAWRENCE       CLOUDY    25  18  74 SE5       30.49F
MANHATTAN      CLOUDY    29  15  56 S3        30.47R
MARYSVILLE     CLOUDY    27  18  69 CALM      30.44F
OLATHE IND     CLOUDY    26  15  63 SE5       30.49S
OLATHE EXE     CLOUDY    25  12  58 MISG      30.48F
SALINA         PTCLDY    24  15  68 SE6       30.44F
TOPEKA BILLARD CLOUDY    26  16  65 CALM      30.50R
TOPEKA FORBES  CLOUDY    24  16  71 S5        30.48S
$$




USA.gov is the U.S. government's official web portal to all federal, state and local government web resources and services.